This demonstration page uses our WeatherBlox Daily Observations layout. Learn more.

Left ArrowRight Arrow

Hourly Observations for August 15, 2021

Temp ( °F °C ) Dew Point ( °F °C ) Humidity (%) Winds ( mph kmh ) Pressure ( in mb ) Visibility ( mi km ) Precip ( " mm )
12:56 am 00:56 Mostly Clear 69 20.6 62 16.7 78 78 SE 12 19 30.11 1020 10 16 0.00 0.00
1:56 am 01:56 Mostly Cloudy 69 20.6 61 16.1 76 76 SSE 13 20 30.11 1020 10 16 0.00 0.00
2:56 am 02:56 Partly Cloudy 68 20 61 16.1 78 78 SE 12 19 30.08 1019 10 16 0.00 0.00
3:29 am 03:29 Mostly Cloudy with Nearby Thunderstorms 68 20 63 17 83 83 SSE 12 19 30.06 1018 10 16 0.00 0.00
3:51 am 03:51 Partly Cloudy 66 19 63 17 88 88 SSE 14 22 30.07 1018 10 16 0.00 0.00
3:56 am 03:56 Partly Cloudy 67 19.4 62 16.7 84 84 S 14 22 30.10 1019 10 16 0.00 0.00
4:15 am 04:15 Mostly Cloudy with Nearby Thunderstorms 66 19 63 17 88 88 S 10 17 30.07 1018 10 16 0.00 0.00
4:37 am 04:37 Clear 66 19 63 17 88 88 S 8 13 30.08 1019 10 16 0.00 0.00
4:47 am 04:47 Clear with Nearby Thunderstorms 66 19 63 17 88 88 SE 8 13 30.08 1019 10 16 0.00 0.00
4:56 am 04:56 Clear 66 18.9 62 16.7 87 87 SE 8 13 30.10 1019 10 16 0.00 0.00
5:56 am 05:56 Cloudy 65 18.3 62 16.7 90 90 ENE 7 11 30.13 1020 10 16 0.00 0.00
6:04 am 06:04 Mostly Cloudy 64 18 63 17 94 94 ESE 7 11 30.12 1020 10 16 0.00 0.00
6:15 am 06:15 Cloudy 66 19 63 17 88 88 SE 8 13 30.10 1019 10 16 0.00 0.00
6:56 am 06:56 Cloudy with Light Rain 65 18.3 63 17.2 93 93 S 21 33 30.08 1019 9 14 0.07 1.78
7:56 am 07:56 Sunny 67 19.4 64 17.8 91 91 SSW 8 13 30.09 1019 10 16 0.00 0.00
8:56 am 08:56 Sunny 71 21.7 66 18.9 84 84 SSE 9 15 30.07 1018 10 16 0.00 0.00
9:56 am 09:56 Sunny 74 23.3 66 18.9 76 76 S 16 26 30.04 1017 10 16 0.00 0.00
10:56 am 10:56 Mostly Sunny 76 24.4 67 19.4 74 74 SSE 10 17 30.07 1018 10 16 0.00 0.00
11:56 am 11:56 Sunny 79 26.1 66 18.9 65 65 S 14 22 30.05 1018 10 16 0.00 0.00
12:56 pm 12:56 Sunny 81 27.2 67 19.4 62 62 SSE 14 22 30.02 1017 10 16 0.00 0.00
1:56 pm 13:56 Sunny 82 27.8 66 18.9 58 58 SSE 17 28 30.01 1016 10 16 0.00 0.00
2:56 pm 14:56 Sunny 84 28.9 65 18.3 53 53 SSE 20 31 30.00 1016 10 16 0.00 0.00
3:56 pm 15:56 Sunny 85 29.4 66 18.9 53 53 SE 18 30 29.98 1015 10 16 0.00 0.00
4:56 pm 16:56 Sunny 85 29.4 66 18.9 53 53 SE 16 26 29.96 1014 10 16 0.00 0.00
5:56 pm 17:56 Sunny 85 29.4 66 18.9 53 53 SSE 12 19 29.95 1014 10 16 0.00 0.00
6:56 pm 18:56 Sunny 83 28.3 67 19.4 59 59 SE 12 19 29.94 1014 10 16 0.00 0.00
7:56 pm 19:56 Sunny 79 26.1 69 20.6 72 72 SE 17 28 29.95 1014 10 16 0.00 0.00
8:56 pm 20:56 Clear 75 23.9 67 19.4 76 76 SE 10 17 29.96 1015 10 16 0.00 0.00
9:56 pm 21:56 Partly Cloudy with Light Rain 72 22.2 66 18.9 82 82 SE 9 15 29.98 1015 10 16 0.00 0.00
10:56 pm 22:56 Clear 70 21.1 65 18.3 84 84 SSE 12 19 29.98 1015 10 16 0.00 0.00
11:56 pm 23:56 Clear 68 20 64 17.8 87 87 SSE 10 17 29.98 1015 10 16 0.00 0.00

Powered by AerisWeather